Find Starlink 2013

NORAD ID: 47636 Int'l Des: 2021-012 Owner: SPXS Country: US Constellation: starlink decayed
LEOCIRCULAR
Vis

Historical Track — 23. März 2025

3D-Globus wird geladen...

Über Starlink 2013

Beschreibung wird geladen...

Höhenverlauf

Loading altitude history...

Zweizeiliger Elementsatz

1 47636U 21012S 25082.05512627 .21062461 12571-4 57487-3 0 9993
2 47636 53.0197 135.4573 0005985 307.7036 126.9505 16.45253699227519
Epoch: 23. März 2025 • Age: 9834 hours

Aktueller Status

Position data unavailable
Startdatum 16. Feb. 2021
Alter 5.2 years
Verglühungsdatum 23. März 2025
Typ internet

Technische Details

Klassifizierung Payload
Masse 260.00 kg
Trockenmasse 248.00 kg
Gesamtmasse 260.00 kg
Länge 0.20 m
Durchmesser 2.80 m
Spannweite 9.00 m
Form Box + pan
Hersteller SPXS
Bus-Typ Starlink
Phasenstatus Unknown Transfer Status
Besitzer/Staat SPXS/US

Most Searched